Regional Weather Roundup
Issued by NWS

Home | Current Version | Previous Version | Graphics & Text | Print | Product List | Glossary On
Versions: 1 2 3 4 5 6 7 8 9 10 11 12 13 14 15 16 17 18 19 20 21 22 23 24 25 26 27 28 29 30 31 32 33 34 35 36 37 38 39 40 41 42 43 44 45 46 47 48 49 50
652
ASUS44 KJAN 011110
RWRMS

MISSISSIPPI HOURLY WEATHER ROUNDUP
NATIONAL WEATHER SERVICE JACKSON MS
500 AM CST SUN FEB 01 2015

NOTE: "FAIR: INDICATES FEW OR NO CLOUDS BELOW 12,000 FEET WITH NO
SIGNIFICANT WEATHER AND/OR OBSTRUCTIONS TO VISIBILITY.

MSZ001>002-007>008-010>013-018>021-025>028-034>036-011200-
NORTHWEST MISSISSIPPI

CITY           SKY/WX    TMP DP  RH WIND       PRES   REMARKS
CLARKSDALE     CLOUDY    48  48 100 SE18      29.95F
CLEVELAND      RAIN      49  49  99 S13       29.94F
GREENWOOD      LGT RAIN  51  48  89 S20       29.98F
GREENVILLE     LGT RAIN  52  48  86 S13       29.93F
GRENADA        RAIN      50  46  87 S7        30.00F
OLIVE BRANCH   CLOUDY    46  39  76 S15       29.93F
OXFORD         CLOUDY    45  39  81 SE9       30.00F HAZE
TUNICA         DRIZZLE   46  43  87 S13       29.95S
$$

MSZ003>006-009-014>017-022>024-029>033-037>039-011200-
NORTHEAST MISSISSIPPI

CITY           SKY/WX    TMP DP  RH WIND       PRES   REMARKS
COLUMBUS AFB   LGT RAIN  48  37  65 SE12      30.06F
GOLDN TRIANGLE CLOUDY    46  36  66 S10       30.06F
STARKVILLE     LGT RAIN  45  39  81 S6        30.07R
TUPELO         CLOUDY    49  33  54 S13       30.04S
$$

MSZ040-058-011200-
CENTRAL MISSISSIPPI

CITY           SKY/WX    TMP DP  RH WIND       PRES   REMARKS
JACKSON INTL   LGT RAIN  51  48  89 SE7       30.02F
JACKSON HAWKNS RAIN      51  48  89 SE8       30.02F FOG
MERIDIAN KEY   CLOUDY    51  42  71 SE7       30.07S
MERIDIAN NAS   CLOUDY    45  37  73 SE6       30.09S
RAYMOND        LGT RAIN  50  46  87 SE7       30.01F
VICKSBURG      LGT RAIN  52  49  89 SE15      29.96F
$$

MSZ059>079-011200-
SOUTH MISSISSIPPI

CITY           SKY/WX    TMP DP  RH WIND       PRES   REMARKS
BROOKHAVEN       N/A     54  52  94 SE7       30.02F
HATTIESBURG    CLOUDY    49  45  86 CALM      30.06F
MCCOMB         LGT RAIN  55  51  86 SE9       30.00F
NATCHEZ        CLOUDY    55  48  76 S10       29.98F
PINE BELT      CLOUDY    52  45  76 SE6       30.05F
$$

MSZ080>082-011200-
COASTAL MISSISSIPPI

CITY           SKY/WX    TMP DP  RH WIND       PRES   REMARKS
BILOXI         CLOUDY    60  55  86 SE13      30.04F
PASCAGOULA     MOCLDY    49  48  97 CALM      30.06F
GULFPORT       CLOUDY    59  55  87 SE12      30.03F
$$



USA.gov is the U.S. government's official web portal to all federal, state and local government web resources and services.